Regional Weather Roundup
Issued by NWS

Home | Current Version | Previous Version | Graphics & Text | Print | Product List | Glossary On
Versions: 1 2 3 4 5 6 7 8 9 10 11 12 13 14 15 16 17 18 19 20 21 22 23 24 25 26 27 28 29 30 31 32 33 34 35 36 37 38 39 40 41 42 43 44 45 46 47 48 49 50
000
ASUS43 KIND 272259
RWRIN

WEATHER ROUNDUP FOR INDIANA
NATIONAL WEATHER SERVICE INDIANAPOLIS IN
700 PM EDT WED MAY 27 2015

NOTE: "FAIR" INDICATES FEW OR NO CLOUDS BELOW 12,000 FEET WITH NO
SIGNIFICANT WEATHER AND/OR OBSTRUCTIONS TO VISIBILITY.

* - STATION DOES NOT REPORT WEATHER SUCH AS PRECIPITATION OR FOG.

+ - STATION NOT QUALITY CONTROLLED BY THE NATIONAL WEATHER SERVICE.
    USE DATA WITH CAUTION...ESPECIALLY DEWPOINT AND RELATIVE
    HUMIDITY OBSERVATIONS.

INZ001>003-010>013-019-020-280000-
NORTHWEST INDIANA

CITY           SKY/WX    TMP DP  RH WIND       PRES   REMARKS
GARY /AIRPORT/ PTSUNNY   72  55  56 N9        30.05R
RENSSELAER +   SUNNY     77  55  47 NW9G17    30.03S

$$

LMZ046-743>745-280000-
SOUTHERN LAKE MICHIGAN

STATION/POSITION TIME  TEMP    WIND        PRES    WAVE
                       AIR SEA DIR/SP/G            HT
                 (UTC) (F)     (DEG/KT/KT) (MB)    (FT)
BURNS HARBOR     2200   62      50/  8/ 11 1017.6R
MICHIGAN CITY    2200   60     340/ 10/ 12   N/A
5NW MICH CITY    2200   55 53   10/  4/  6   N/A     1

$$

INZ004-005-014>016-021>024-280000-
NORTH CENTRAL INDIANA

CITY           SKY/WX    TMP DP  RH WIND       PRES   REMARKS
ELKHART        PTSUNNY   70  57  64 NW8G16    30.04R
GOSHEN         CLOUDY    70  58  65 NW12      30.02R
SOUTH BEND     PTSUNNY   71  56  58 NW10      30.04R

$$

INZ006>009-017-018-025>027-280000-
NORTHEAST INDIANA

CITY           SKY/WX    TMP DP  RH WIND       PRES   REMARKS
ANGOLA *+      PTSUNNY   72  64  78 NW9       30.02R
FORT WAYNE     CLOUDY    71  64  78 SW6       30.03S

$$

INZ028-029-035-036-043>045-051>053-280000-
WEST CENTRAL INDIANA

CITY           SKY/WX    TMP DP  RH WIND       PRES   REMARKS
CRAWFORDSVL +  PTSUNNY   76  59  56 W9        30.04S
GREENCASTLE +  PTSUNNY   77  55  47 SW6       30.04F
LAFAYETTE      SUNNY     77  58  51 W14       30.02F
TERRE HAUTE    PTSUNNY   81  61  50 W10       30.04S

$$

INZ030>032-037>040-046>048-054>057-064-065-280000-
CENTRAL INDIANA

CITY           SKY/WX    TMP DP  RH WIND       PRES   REMARKS
GREENWOOD *+   CLOUDY    79  55  44 SW14G20   30.05F
INDIANAPOLIS   CLOUDY    78  58  49 SW14      30.03S
-EAGLE CREEK   CLOUDY    77  59  53 NW13      30.04R THUNDER
KOKOMO *+      PTSUNNY   73  64  73 W7        30.04F
MT COMFORT *+  CLOUDY    79  46  31 SW13G21   30.04F
SHELBYVILLE    CLOUDY    80  65  59 SW12      30.04F

$$

INZ033-034-041-042-049-050-058-059-280000-
EAST CENTRAL INDIANA

CITY           SKY/WX    TMP DP  RH WIND       PRES   REMARKS
MUNCIE         CLOUDY    78  62  57 SW9       30.04S

$$

INZ060-061-067>069-081>083-085>088-280000-
SOUTHWEST INDIANA

CITY           SKY/WX    TMP DP  RH WIND       PRES   REMARKS
EVANSVILLE     CLOUDY    76  63  64 SW12      30.07F
HUNTINGBURG *+ CLOUDY    75  64  69 SW8       30.09S

$$

INZ062-063-066-070>080-084-089>092-280000-
SOUTH CENTRAL AND SOUTHEAST INDIANA

CITY           SKY/WX    TMP DP  RH WIND       PRES   REMARKS
BLOOMINGTON    CLOUDY    80  59  48 SW8       30.07S
MADISON *+     CLOUDY    72  61  68 S10       30.14R
SEYMOUR +      CLOUDY    79  61  53 S17       30.07R

$$




USA.gov is the U.S. government's official web portal to all federal, state and local government web resources and services.